Home   Weather   Florø   Past weeks

Flag for Norway Past Weather in Florø, Norway — Yesterday and Last 2 Weeks

Now
45 °F

Light rain. Partly cloudy.


Feels Like: 38 °F
Forecast: 46 / 49 °F
Wind: 13 mph from East

Location: Floro

Current Time: Dec 9, 2016 at 8:37:25 pm

Latest Report: Dec 9, 2016 at 7:50 pm


Visibility: N/A

Pressure: 29.80 "Hg

Humidity: 93%

Dew Point: 43 °F

Location of FlorøLocation

Past Weather in Florø — Graph

°F

Florø Temperature Yesterday

Maximum temperature yesterday: 52 °F (at 1:20 am)
Minimum temperature yesterday: 48 °F (at 4:50 am)
Average temperature yesterday: 49 °F

High & Low Weather Summary for the Past Weeks

 TemperatureHumidityPressure
High52 °F (Dec 8, 1:20 am)100% (Nov 25, 6:50 am)30.51 "Hg (Nov 25, 6:50 am)
Low32 °F (Nov 28, 2:20 am)46% (Nov 27, 9:50 am)29.42 "Hg (Dec 8, 3:20 am)
Average42 °F84%30.05 "Hg
* Reported Nov 24 7:20 pm — Dec 9 7:20 pm, Florø, Weather by CustomWeather, © 2016

Note: Actual official high and low records may vary slightly from our data, if they occured in-between our weather recording intervals... More about our weather records

Advertising

Florø Weather History for the Previous 24 Hours

Scroll right to see more
 ConditionsComfort  
Time TempWeatherWind HumidityBarometerVisibility
7:20 pm
Fri, Dec 9
45 °FSleet. Partly cloudy.13 mph93%29.80 "HgN/A
6:50 pm45 °FLight rain. Partly cloudy.10 mph93%29.80 "Hg4 mi
6:20 pm45 °FDrizzle. Fog.10 mph93%29.80 "Hg3 mi
5:50 pm45 °FSleet. Partly cloudy.10 mph100%29.80 "HgN/A
5:20 pm46 °FPartly cloudy.8 mph93%29.83 "HgN/A
4:50 pm46 °FPassing clouds.10 mph93%29.86 "HgN/A
4:20 pm46 °FPartly cloudy.7 mph93%29.86 "HgN/A
3:50 pm46 °FPartly cloudy.8 mph93%29.86 "HgN/A
3:20 pm46 °FScattered showers. Partly cloudy.12 mph93%29.86 "HgN/A
2:50 pm46 °FScattered showers. Broken clouds.12 mph93%29.89 "HgN/A
2:20 pm46 °FScattered showers. Broken clouds.12 mph93%29.89 "HgN/A
1:50 pm46 °FScattered showers. Broken clouds.8 mph93%29.89 "HgN/A
1:20 pm46 °FScattered showers. Broken clouds.9 mph93%29.89 "HgN/A
12:50 pm46 °FScattered showers. Broken clouds.12 mph93%29.89 "HgN/A
12:20 pm46 °FScattered showers. Broken clouds.10 mph93%29.89 "HgN/A
11:50 am46 °FScattered showers. Broken clouds.14 mph93%29.89 "HgN/A
11:20 am46 °FScattered showers. Broken clouds.12 mph93%29.89 "HgN/A
10:50 am46 °FScattered showers. Broken clouds.12 mph93%29.89 "HgN/A
10:20 am46 °FSleet. Fog.14 mph93%29.86 "HgN/A
9:50 am46 °FDrizzle. Fog.14 mph93%29.86 "Hg2 mi
9:20 am46 °FSleet. Passing clouds.13 mph93%29.86 "HgN/A
8:50 am48 °FScattered showers. Passing clouds.15 mph87%29.83 "HgN/A
8:20 am48 °FPartly cloudy.20 mph87%29.83 "HgN/A
7:50 am46 °FPartly cloudy.20 mph93%29.80 "HgN/A
7:20 am46 °FPartly cloudy.20 mph93%29.80 "Hg4 mi
6:50 am48 °FPassing clouds.20 mph87%29.80 "HgN/A
6:20 am46 °FPartly cloudy.18 mph100%29.80 "Hg5 mi
5:50 am46 °FPassing clouds.16 mph93%29.80 "Hg5 mi
5:20 am46 °FSprinkles. Mostly cloudy.20 mph93%29.80 "Hg3 mi
4:50 am46 °FSprinkles. Partly cloudy.20 mph93%29.80 "HgN/A
4:20 am48 °FSprinkles. Mostly cloudy.16 mph82%29.80 "HgN/A
3:50 am48 °FMostly cloudy.16 mph87%29.80 "HgN/A
3:20 am46 °FSprinkles. Partly cloudy.20 mph87%29.80 "HgN/A
2:50 am46 °FSprinkles. Partly cloudy.22 mph93%29.80 "Hg4 mi
2:20 am46 °FSprinkles. Overcast.18 mph93%29.80 "HgN/A
1:50 am46 °FSprinkles. Overcast.15 mph93%29.80 "Hg2 mi
1:20 am46 °FSprinkles. Partly cloudy.16 mph93%29.80 "HgN/A
12:50 am46 °FRain showers. Mostly cloudy.18 mph93%29.80 "Hg1 mi
12:20 am48 °FSprinkles. Mostly cloudy.18 mph87%29.80 "Hg3 mi
11:50 pm
Thu, Dec 8
48 °FRain showers. Fog.20 mph94%29.80 "HgN/A
11:20 pm48 °FSprinkles. Mostly cloudy.18 mph94%29.80 "Hg6 mi
10:50 pm48 °FPartly cloudy.20 mph94%29.80 "HgN/A
10:20 pm48 °FScattered showers. Partly cloudy.18 mph94%29.80 "HgN/A
9:50 pm48 °FScattered showers. Partly cloudy.25 mph94%29.80 "HgN/A
9:20 pm48 °FDrizzle. Fog.25 mph94%29.80 "Hg2 mi
8:50 pm48 °FScattered showers. Partly cloudy.20 mph94%29.80 "HgN/A
8:20 pm48 °FDrizzle. Fog.21 mph94%29.80 "Hg2 mi
Weather by CustomWeather, © 2016

See weather overviewHow to use our weather pages